Redmond, OR

1:47 AM PST on November 14, 2019 (GMT -0800)
Roberts Field Airport

Weather History for KRDM - August, 2019

Change the Weather History Date:

Thursday, August 29, 2019

  Actual Average Record
Temperature  
Mean Temperature 75 °F 62 °F  
Max Temperature 89 °F 82 °F 100 °F (1998)
Min Temperature 60 °F 43 °F 31 °F (1969)
Degree Days  
Heating Degree Days 0 4  
Month to date heating degree days 14 72  
Since 1 June heating degree days 196 358  
Since 1 July heating degree days 47 141  
Cooling Degree Days 10 1  
Month to date cooling degree days 133 78  
Year to date cooling degree days 239 204  
Since 1 June cooling degree days 239 199  
Growing Degree Days 24 (Base 50)    
Moisture  
Dew Point 52 °F    
Average Humidity 49    
Maximum Humidity 69    
Minimum Humidity 29    
Precipitation  
Precipitation T in 0.02 in 0.45 in (1982)
Month to date precipitation T 0.47  
Year to date precipitation 7.46 5.70  
Sea Level Pressure  
Sea Level Pressure 29.94 in    
Wind  
Wind Speed 7 mph (WNW)    
Max Wind Speed 17 mph    
Max Gust Speed 23 mph    
Visibility 10 miles    
Events Rain , Thunderstorm    
T = Trace of Precipitation, MM = Missing Value Source: NWS Daily Summary

Daily Weather History Graph

Daily Weather History Graph

Search for Another Location

Airport or City:

Astronomy

Aug. 29, 2019 Rise Set
Actual Time 6:23 AM PDT 7:46 PM PDT
Civil Twilight 5:53 AM PDT 8:16 PM PDT
Nautical Twilight 5:17 AM PDT 8:52 PM PDT
Astronomical Twilight 4:38 AM PDT 9:30 PM PDT
Moon 5:11 AM PDT (8/29) 7:49 PM PDT (8/29)
Length of Visible Light 14h 22m
Length of Day
13h 22m
Waning Crescent, 1% of the Moon is Illuminated
Aug 29
Waning Crescent
Aug 30
New
Sep 5
First Quarter
Sep 13
Full
Sep 21
Last Quarter

Hourly Weather History & Observations

Time (PDT) Temp. Heat Index Dew Point Humidity Pressure Visibility Wind Dir Wind Speed Gust Speed Precip Events Conditions
12:56 AM 73.9 °F - 52.0 °F 46% 29.92 in 10.0 mi South 5.8 mph - 0.00 in   Mostly Cloudy
1:56 AM 77.0 °F - 52.0 °F 42% 29.89 in 10.0 mi SSE 8.1 mph - N/A   Clear
2:56 AM 73.9 °F - 51.1 °F 45% 29.88 in 10.0 mi Calm Calm - N/A   Clear
3:56 AM 69.1 °F - 52.0 °F 54% 29.88 in 10.0 mi SSE 4.6 mph - N/A   Clear
4:56 AM 64.0 °F - 50.0 °F 60% 29.90 in 10.0 mi SSW 3.5 mph - N/A   Clear
5:56 AM 63.0 °F - 50.0 °F 63% 29.92 in 10.0 mi Calm Calm - N/A   Clear
6:56 AM 60.1 °F - 50.0 °F 69% 29.94 in 10.0 mi SSW 3.5 mph - N/A   Overcast
7:56 AM 69.1 °F - 51.1 °F 53% 29.94 in 10.0 mi WSW 4.6 mph - N/A   Partly Cloudy
8:56 AM 75.9 °F - 50.0 °F 40% 29.95 in 10.0 mi NW 3.5 mph - N/A   Mostly Cloudy
9:56 AM 75.9 °F - 51.1 °F 42% 29.96 in 10.0 mi Calm Calm - N/A Thunderstorm Overcast
10:19 AM 75.9 °F - 53.1 °F 45% 30.06 in 10.0 mi NW 6.9 mph - 0.00 in Rain Light Rain
10:56 AM 78.1 °F - 53.1 °F 42% 29.96 in 10.0 mi NNW 8.1 mph - 0.00 in   Mostly Cloudy
11:56 AM 82.9 °F - 50.0 °F 32% 29.96 in 10.0 mi North 10.4 mph - N/A   Partly Cloudy
12:56 PM 86.0 °F - 50.0 °F 29% 29.94 in 10.0 mi Variable 5.8 mph 17.3 mph N/A   Clear
1:56 PM 88.0 °F - 51.1 °F 28% 29.92 in 10.0 mi NNW 15.0 mph - N/A   Partly Cloudy
2:56 PM 88.0 °F - 51.1 °F 28% 29.91 in 10.0 mi North 13.8 mph - N/A   Clear
3:56 PM 84.0 °F - 51.1 °F 32% 29.91 in 10.0 mi NW 12.7 mph - N/A   Clear
4:56 PM 82.9 °F 81.8 °F 53.1 °F 36% 29.91 in 10.0 mi North 10.4 mph - 0.00 in Rain Light Rain
5:56 PM 82.9 °F - 52.0 °F 34% 29.91 in 10.0 mi NNW 10.4 mph - 0.00 in   Clear
6:56 PM 82.9 °F - 50.0 °F 32% 29.92 in 10.0 mi NNW 10.4 mph - N/A   Clear
7:56 PM 79.0 °F - 53.1 °F 40% 29.95 in 10.0 mi West 12.7 mph - N/A   Mostly Cloudy
8:56 PM 72.0 °F - 57.9 °F 61% 29.94 in 10.0 mi NNW 8.1 mph - 0.00 in Rain Light Rain
9:56 PM 70.0 °F - 55.9 °F 61% 29.97 in 10.0 mi SW 6.9 mph - 0.00 in   Clear
10:56 PM 69.1 °F - 55.9 °F 63% 29.99 in 10.0 mi SW 10.4 mph - N/A   Clear
11:56 PM 68.0 °F - 55.0 °F 63% 29.98 in 10.0 mi SSW 4.6 mph - N/A   Partly Cloudy